Location: Westminster
(33.3626°N, 96.4619°W)
Time: 07:02:31
(UTC+00:00)

Cosmos 1515 Rocket - Pass Details

Date: 03 July 2022
Orbit: 604 x 630 km, 82.5° (Epoch: 14 August)

Event Time Altitude Azimuth Distance (km) Brightness Sun altitude
Rises 10:11:45 0° 336° (NNW) 2,889 7.2 -12.8°
Reaches altitude 10° 10:14:23 10° 321° (NW) 1,975 6.1 -12.4°
Maximum altitude 10:17:42 21° 271° (W) 1,368 4.9 -11.9°
Enters shadow 10:19:33 16° 238° (WSW) 1,577 5.0 -11.6°
